Flag for Germany Weather past 2 weeks in Speyer, Rhineland-Palatinate, Germany

Now
37 °F

Mostly cloudy.


Feels Like: 35 °F
Forecast: 32 / 37 °F
Wind: 3 mph from North

Location: Baden Wurttemberg - Neuostheim

Current Time: Jan 25, 2015 at 2:11:51 PM

Latest Report: Jan 25, 2015 at 1:50 PM


Visibility: N/A

Pressure: 30.42 "Hg

Humidity: 87%

Dew point: 34 °F

Location of SpeyerLocation

Historic Weather in Speyer — Graph

°F

Speyer temperature yesterday

Maximum temperature yesterday: 36 °F (at 11:50 AM)
Minimum temperature yesterday: 30 °F (at 7:20 AM)
Average temperature yesterday: 34 °F

Past Weeks' High & Low Weather Summary

 TemperatureHumidityPressure
High59 °F (Jan 13, 2:50 PM)100% (Jan 16, 10:20 AM)30.45 "Hg (Jan 16, 10:20 AM)
Low28 °F (Jan 19, 5:20 AM)31% (Jan 13, 2:50 PM)29.65 "Hg (Jan 15, 6:50 PM)
Average40 °F78%29.99 "Hg
* Reported Jan 10 12:50 PM — Jan 25 12:50 PM, Speyer, Weather by CustomWeather, © 2014

Note: Actual official high and low records may vary slightly from our data, if they occured in-between our weather recording intervals... More about our weather records

Advertising

Speyer weather history for previous 24 hours

 ConditionsComfort  
Time TempWeatherWind HumidityBarometerVisibility
12:50 PM
Jan 25
36 °FMostly cloudy.3 mph93%30.42 "HgN/A
11:50 AM34 °FOvercast.3 mph100%30.45 "Hg5 mi
11:20 AM34 °FMostly cloudy.3 mph100%30.45 "Hg4 mi
10:50 AM34 °FMostly cloudy.3 mph100%30.45 "Hg5 mi
10:20 AM34 °FPartly sunny.2 mph100%30.45 "Hg5 mi
9:50 AM32 °FMore clouds than sun.3 mph100%30.42 "Hg4 mi
9:20 AM32 °FPartly sunny.2 mph100%30.42 "Hg4 mi
8:50 AM32 °FMostly cloudy.2 mph93%30.42 "Hg4 mi
8:20 AM30 °FOvercast.2 mph100%30.42 "Hg4 mi
7:50 AM30 °FIce fog.2 mph100%30.42 "Hg3 mi
7:20 AM28 °FIce fog.No wind100%30.39 "Hg3 mi
4:50 PM
Jan 24
34 °FLight snow. Broken clouds.5 mph93%30.15 "Hg2 mi
4:20 PM34 °FFog.5 mph93%30.12 "Hg2 mi
3:50 PM32 °FLight snow. Partly sunny.6 mph100%30.12 "Hg1 mi
3:20 PM34 °FLight snow. Partly sunny.6 mph87%30.12 "Hg1 mi
2:50 PM36 °FLight snow. Partly sunny.7 mph75%30.12 "HgN/A
2:20 PM36 °FPartly sunny.8 mph75%30.12 "HgN/A
Weather by CustomWeather, © 2014

See weather overviewHow to use our weather pages